Time,TemperatureF,DewpointF,PressureIn,WindDirection,WindDirectionDegrees,WindSpeedMPH,WindSpeedGustMPH,Humidity,HourlyPrecipIn,Conditions,Clouds,dailyrainin,SoftwareType,DateUTC
2013-08-19 11:00:00,0.0,0.0,30.13,ESE,112,5.0,14.0,0,0.00,,---,0.01,VWS V14.01,2013-08-19 15:00:00,
2013-08-19 11:38:00,0.0,0.0,30.13,East,85,4.0,5.0,0,0.00,,---,0.01,VWS V14.01,2013-08-19 15:38:00,
2013-08-19 11:39:00,0.0,0.0,30.13,East,92,6.0,9.0,0,0.00,,---,0.01,VWS V14.01,2013-08-19 15:39:00,
2013-08-19 11:44:00,0.0,0.0,30.13,ESE,103,10.0,11.0,0,0.00,,---,0.01,VWS V14.01,2013-08-19 15:44:00,
2013-08-19 11:49:00,0.0,0.0,30.14,East,98,11.0,12.0,0,0.00,,---,0.01,VWS V14.01,2013-08-19 15:49:00,
2013-08-19 11:54:00,0.0,0.0,30.14,ESE,109,7.0,12.0,0,0.00,,---,0.01,VWS V14.01,2013-08-19 15:54:00,
2013-08-19 11:59:00,0.0,0.0,30.14,East,85,9.0,11.0,0,0.00,,---,0.01,VWS V14.01,2013-08-19 15:59:00,
2013-08-19 12:04:00,0.0,0.0,30.13,East,101,10.0,12.0,0,0.00,,---,0.01,VWS V14.01,2013-08-19 16:04:00,
2013-08-19 12:09:00,0.0,0.0,30.13,ESE,110,12.0,13.0,0,0.00,,---,0.01,VWS V14.01,2013-08-19 16:09:00,
2013-08-19 12:14:00,0.0,0.0,30.13,ESE,114,6.0,13.0,0,0.00,,---,0.01,VWS V14.01,2013-08-19 16:14:00,
2013-08-19 12:19:00,0.0,0.0,30.13,East,99,10.0,14.0,0,0.00,,---,0.01,VWS V14.01,2013-08-19 16:19:00,
2013-08-19 12:24:00,0.0,0.0,30.14,ESE,113,3.0,14.0,0,0.00,,---,0.01,VWS V14.01,2013-08-19 16:24:00,
2013-08-19 12:29:00,0.0,0.0,30.13,ESE,104,5.0,9.0,0,0.00,,---,0.01,VWS V14.01,2013-08-19 16:29:00,
2013-08-19 12:34:00,0.0,0.0,30.13,ESE,105,12.0,13.0,0,0.00,,---,0.01,VWS V14.01,2013-08-19 16:34:00,
2013-08-19 12:39:00,0.0,0.0,30.13,East,98,4.0,13.0,0,0.00,,---,0.01,VWS V14.01,2013-08-19 16:39:00,
2013-08-19 12:45:00,0.0,0.0,30.13,East,91,7.0,13.0,0,0.00,,---,0.01,VWS V14.01,2013-08-19 16:45:00,
2013-08-19 12:50:00,0.0,0.0,30.13,NE,40,9.0,13.0,0,0.00,,---,0.01,VWS V14.01,2013-08-19 16:50:00,
2013-08-19 12:55:00,0.0,0.0,30.13,NNE,26,11.0,15.0,0,0.00,,---,0.01,VWS V14.01,2013-08-19 16:55:00,
2013-08-19 13:00:00,0.0,0.0,30.12,NE,37,12.0,16.0,0,0.00,,---,0.01,VWS V14.01,2013-08-19 17:00:00,
2013-08-19 13:05:00,0.0,0.0,30.12,North,5,12.0,17.0,0,0.00,,---,0.01,VWS V14.01,2013-08-19 17:05:00,
2013-08-19 13:10:00,0.0,0.0,30.12,North,11,13.0,17.0,0,0.00,,---,0.01,VWS V14.01,2013-08-19 17:10:00,
2013-08-19 13:15:00,0.0,0.0,30.12,NNE,16,12.0,17.0,0,0.00,,---,0.01,VWS V14.01,2013-08-19 17:15:00,
2013-08-19 13:20:00,0.0,0.0,30.12,NNE,17,11.0,18.0,0,0.02,,---,0.03,VWS V14.01,2013-08-19 17:20:00,
2013-08-19 13:25:00,0.0,0.0,30.12,NNE,18,14.0,18.0,0,0.04,,---,0.05,VWS V14.01,2013-08-19 17:25:00,
2013-08-19 13:30:00,0.0,0.0,30.12,North,5,12.0,14.0,0,0.05,,---,0.06,VWS V14.01,2013-08-19 17:30:00,
2013-08-19 13:35:00,0.0,0.0,30.11,NNE,13,9.0,15.0,0,0.07,,---,0.08,VWS V14.01,2013-08-19 17:35:00,
2013-08-19 13:40:00,0.0,0.0,30.11,NNE,23,13.0,15.0,0,0.07,,---,0.08,VWS V14.01,2013-08-19 17:40:00,
2013-08-19 13:46:00,0.0,0.0,30.10,NNE,13,9.0,15.0,0,0.07,,---,0.08,VWS V14.01,2013-08-19 17:46:00,
2013-08-19 13:51:00,0.0,0.0,30.11,NNE,18,9.0,15.0,0,0.07,,---,0.08,VWS V14.01,2013-08-19 17:51:00,
2013-08-19 13:56:00,0.0,0.0,30.10,NNE,25,7.0,15.0,0,0.07,,---,0.08,VWS V14.01,2013-08-19 17:56:00,
2013-08-19 14:01:00,0.0,0.0,30.10,NE,36,9.0,13.0,0,0.07,,---,0.08,VWS V14.01,2013-08-19 18:01:00,
2013-08-19 14:06:00,0.0,0.0,30.11,NNE,17,9.0,13.0,0,0.07,,---,0.08,VWS V14.01,2013-08-19 18:06:00,
2013-08-19 14:11:00,0.0,0.0,30.10,NNE,14,10.0,14.0,0,0.07,,---,0.08,VWS V14.01,2013-08-19 18:11:00,
2013-08-19 14:16:00,0.0,0.0,30.10,NE,41,5.0,14.0,0,0.07,,---,0.08,VWS V14.01,2013-08-19 18:16:00,
2013-08-19 14:21:00,0.0,0.0,30.10,NE,36,9.0,14.0,0,0.07,,---,0.08,VWS V14.01,2013-08-19 18:21:00,
2013-08-19 14:26:00,0.0,0.0,30.10,NE,41,7.0,14.0,0,0.07,,---,0.08,VWS V14.01,2013-08-19 18:26:00,
2013-08-19 14:31:00,0.0,0.0,30.10,ENE,57,6.0,9.0,0,0.03,,---,0.08,VWS V14.01,2013-08-19 18:31:00,
2013-08-19 14:37:00,0.0,0.0,30.09,ENE,60,10.0,11.0,0,0.03,,---,0.08,VWS V14.01,2013-08-19 18:37:00,
2013-08-19 14:42:00,0.0,0.0,30.09,ENE,65,7.0,11.0,0,0.03,,---,0.08,VWS V14.01,2013-08-19 18:42:00,
2013-08-19 14:47:00,0.0,0.0,30.09,NE,51,5.0,11.0,0,0.03,,---,0.08,VWS V14.01,2013-08-19 18:47:00,
2013-08-19 14:52:00,0.0,0.0,30.09,ENE,76,7.0,11.0,0,0.03,,---,0.08,VWS V14.01,2013-08-19 18:52:00,
2013-08-19 14:57:00,0.0,0.0,30.09,ENE,59,7.0,11.0,0,0.03,,---,0.08,VWS V14.01,2013-08-19 18:57:00,
2013-08-19 15:02:00,0.0,0.0,30.09,ENE,67,8.0,9.0,0,0.00,,---,0.08,VWS V14.01,2013-08-19 19:02:00,
2013-08-19 15:07:00,0.0,0.0,30.09,ENE,72,8.0,11.0,0,0.00,,---,0.08,VWS V14.01,2013-08-19 19:07:00,
2013-08-19 15:12:00,0.0,0.0,30.09,East,84,6.0,11.0,0,0.00,,---,0.08,VWS V14.01,2013-08-19 19:12:00,
2013-08-19 15:17:00,0.0,0.0,30.09,ENE,60,4.0,11.0,0,0.00,,---,0.08,VWS V14.01,2013-08-19 19:17:00,
2013-08-19 15:22:00,0.0,0.0,30.09,ESE,112,5.0,12.0,0,0.00,,---,0.08,VWS V14.01,2013-08-19 19:22:00,
2013-08-19 15:27:00,0.0,0.0,30.09,East,82,7.0,7.0,0,0.00,,---,0.08,VWS V14.01,2013-08-19 19:27:00,
2013-08-19 15:32:00,0.0,0.0,30.09,East,100,10.0,12.0,0,0.00,,---,0.08,VWS V14.01,2013-08-19 19:32:00,
2013-08-19 15:38:00,0.0,0.0,30.08,ESE,107,7.0,12.0,0,0.00,,---,0.08,VWS V14.01,2013-08-19 19:38:00,
2013-08-19 15:43:00,0.0,0.0,30.09,ESE,109,7.0,12.0,0,0.00,,---,0.08,VWS V14.01,2013-08-19 19:43:00,
2013-08-19 15:48:00,0.0,0.0,30.09,ESE,115,8.0,12.0,0,0.00,,---,0.08,VWS V14.01,2013-08-19 19:48:00,
2013-08-19 15:53:00,0.0,0.0,30.08,East,84,4.0,12.0,0,0.00,,---,0.08,VWS V14.01,2013-08-19 19:53:00,
2013-08-19 15:58:00,0.0,0.0,30.09,ESE,107,13.0,13.0,0,0.00,,---,0.08,VWS V14.01,2013-08-19 19:58:00,
2013-08-19 16:03:00,0.0,0.0,30.08,ESE,114,6.0,13.0,0,0.00,,---,0.08,VWS V14.01,2013-08-19 20:03:00,
2013-08-19 16:08:00,0.0,0.0,30.08,ESE,102,11.0,13.0,0,0.00,,---,0.08,VWS V14.01,2013-08-19 20:08:00,
2013-08-19 16:13:00,0.0,0.0,30.08,East,98,9.0,14.0,0,0.00,,---,0.08,VWS V14.01,2013-08-19 20:13:00,
2013-08-19 16:18:00,0.0,0.0,30.08,ESE,104,9.0,14.0,0,0.00,,---,0.08,VWS V14.01,2013-08-19 20:18:00,
2013-08-19 16:23:00,0.0,0.0,30.08,ESE,118,10.0,15.0,0,0.00,,---,0.08,VWS V14.01,2013-08-19 20:23:00,
2013-08-19 16:28:00,0.0,0.0,30.08,ESE,121,14.0,16.0,0,0.00,,---,0.08,VWS V14.01,2013-08-19 20:28:00,
2013-08-19 16:33:00,0.0,0.0,30.08,ESE,104,9.0,16.0,0,0.00,,---,0.08,VWS V14.01,2013-08-19 20:33:00,
2013-08-19 16:38:00,0.0,0.0,30.08,ESE,109,8.0,16.0,0,0.00,,---,0.08,VWS V14.01,2013-08-19 20:38:00,
2013-08-19 16:44:00,0.0,0.0,30.08,ESE,109,9.0,16.0,0,0.00,,---,0.08,VWS V14.01,2013-08-19 20:44:00,
2013-08-19 16:49:00,0.0,0.0,30.08,ESE,117,6.0,17.0,0,0.00,,---,0.08,VWS V14.01,2013-08-19 20:49:00,
2013-08-19 16:54:00,0.0,0.0,30.08,ESE,107,12.0,17.0,0,0.00,,---,0.08,VWS V14.01,2013-08-19 20:54:00,
2013-08-19 16:59:00,0.0,0.0,30.08,SE,126,12.0,16.0,0,0.00,,---,0.08,VWS V14.01,2013-08-19 20:59:00,
2013-08-19 17:04:00,0.0,0.0,30.08,ESE,115,11.0,17.0,0,0.00,,---,0.08,VWS V14.01,2013-08-19 21:04:00,
2013-08-19 17:09:00,0.0,0.0,30.08,ESE,104,12.0,17.0,0,0.00,,---,0.08,VWS V14.01,2013-08-19 21:09:00,
2013-08-19 17:14:00,0.0,0.0,30.08,ESE,105,15.0,17.0,0,0.00,,---,0.08,VWS V14.01,2013-08-19 21:14:00,
2013-08-19 17:19:00,0.0,0.0,30.08,East,99,16.0,17.0,0,0.00,,---,0.08,VWS V14.01,2013-08-19 21:19:00,
2013-08-19 17:24:00,0.0,0.0,30.08,ESE,102,15.0,18.0,0,0.00,,---,0.08,VWS V14.01,2013-08-19 21:24:00,
2013-08-19 17:29:00,0.0,0.0,30.08,ESE,107,13.0,17.0,0,0.00,,---,0.08,VWS V14.01,2013-08-19 21:29:00,
2013-08-19 17:34:00,0.0,0.0,30.08,ESE,108,10.0,17.0,0,0.00,,---,0.08,VWS V14.01,2013-08-19 21:34:00,
2013-08-19 17:39:00,0.0,0.0,30.08,East,99,13.0,17.0,0,0.00,,---,0.08,VWS V14.01,2013-08-19 21:39:00,
2013-08-19 17:44:00,0.0,0.0,30.08,East,94,11.0,17.0,0,0.00,,---,0.08,VWS V14.01,2013-08-19 21:44:00,
2013-08-19 17:49:00,0.0,0.0,30.08,East,96,5.0,17.0,0,0.00,,---,0.08,VWS V14.01,2013-08-19 21:49:00,
2013-08-19 17:54:00,0.0,0.0,30.08,ESE,109,13.0,17.0,0,0.00,,---,0.08,VWS V14.01,2013-08-19 21:54:00,
2013-08-19 18:00:00,0.0,0.0,30.07,East,93,6.0,15.0,0,0.00,,---,0.08,VWS V14.01,2013-08-19 22:00:00,
2013-08-19 18:05:00,0.0,0.0,30.08,ESE,103,11.0,16.0,0,0.00,,---,0.08,VWS V14.01,2013-08-19 22:05:00,
2013-08-19 18:10:00,0.0,0.0,30.08,East,91,11.0,16.0,0,0.00,,---,0.08,VWS V14.01,2013-08-19 22:10:00,
2013-08-19 18:15:00,0.0,0.0,30.08,ESE,118,15.0,18.0,0,0.00,,---,0.08,VWS V14.01,2013-08-19 22:15:00,
2013-08-19 18:20:00,0.0,0.0,30.08,ESE,103,12.0,18.0,0,0.00,,---,0.08,VWS V14.01,2013-08-19 22:20:00,
2013-08-19 18:25:00,0.0,0.0,30.07,ESE,115,7.0,18.0,0,0.00,,---,0.08,VWS V14.01,2013-08-19 22:25:00,
2013-08-19 18:30:00,0.0,0.0,30.07,ESE,109,11.0,14.0,0,0.00,,---,0.08,VWS V14.01,2013-08-19 22:30:00,
2013-08-19 18:35:00,0.0,0.0,30.08,ESE,109,10.0,19.0,0,0.00,,---,0.08,VWS V14.01,2013-08-19 22:35:00,
2013-08-19 18:40:00,0.0,0.0,30.07,ESE,102,14.0,19.0,0,0.00,,---,0.08,VWS V14.01,2013-08-19 22:40:00,
2013-08-19 18:45:00,0.0,0.0,30.07,East,100,9.0,19.0,0,0.00,,---,0.08,VWS V14.01,2013-08-19 22:45:00,
2013-08-19 18:50:00,0.0,0.0,30.07,SE,126,11.0,19.0,0,0.00,,---,0.08,VWS V14.01,2013-08-19 22:50:00,
2013-08-19 18:55:00,0.0,0.0,30.07,ESE,109,14.0,19.0,0,0.00,,---,0.08,VWS V14.01,2013-08-19 22:55:00,
2013-08-19 19:00:00,0.0,0.0,30.07,ESE,111,13.0,17.0,0,0.00,,---,0.08,VWS V14.01,2013-08-19 23:00:00,
2013-08-19 19:05:00,0.0,0.0,30.07,East,88,11.0,19.0,0,0.00,,---,0.08,VWS V14.01,2013-08-19 23:05:00,
2013-08-19 19:11:00,0.0,0.0,30.07,ESE,121,13.0,19.0,0,0.00,,---,0.08,VWS V14.01,2013-08-19 23:11:00,
2013-08-19 19:16:00,0.0,0.0,30.07,ESE,111,6.0,19.0,0,0.00,,---,0.08,VWS V14.01,2013-08-19 23:16:00,
2013-08-19 19:21:00,0.0,0.0,30.07,East,84,6.0,19.0,0,0.00,,---,0.08,VWS V14.01,2013-08-19 23:21:00,
2013-08-19 19:26:00,0.0,0.0,30.07,East,86,12.0,19.0,0,0.00,,---,0.08,VWS V14.01,2013-08-19 23:26:00,
2013-08-19 19:31:00,0.0,0.0,30.07,East,100,13.0,16.0,0,0.00,,---,0.08,VWS V14.01,2013-08-19 23:31:00,
2013-08-19 19:36:00,0.0,0.0,30.07,ESE,108,16.0,18.0,0,0.00,,---,0.08,VWS V14.01,2013-08-19 23:36:00,
2013-08-19 19:41:00,0.0,0.0,30.07,ESE,104,12.0,18.0,0,0.00,,---,0.08,VWS V14.01,2013-08-19 23:41:00,
2013-08-19 19:46:00,0.0,0.0,30.07,East,94,11.0,18.0,0,0.00,,---,0.08,VWS V14.01,2013-08-19 23:46:00,
2013-08-19 19:51:00,0.0,0.0,30.07,ESE,110,10.0,18.0,0,0.00,,---,0.08,VWS V14.01,2013-08-19 23:51:00,
2013-08-19 19:56:00,0.0,0.0,30.07,ESE,103,9.0,18.0,0,0.00,,---,0.08,VWS V14.01,2013-08-19 23:56:00,
2013-08-19 20:01:00,0.0,0.0,30.07,ESE,115,13.0,17.0,0,0.00,,---,0.08,VWS V14.01,2013-08-20 00:01:00,
2013-08-19 20:06:00,0.0,0.0,30.08,ESE,107,14.0,18.0,0,0.00,,---,0.08,VWS V14.01,2013-08-20 00:06:00,
2013-08-19 20:11:00,0.0,0.0,30.08,ESE,105,12.0,18.0,0,0.00,,---,0.08,VWS V14.01,2013-08-20 00:11:00,
2013-08-19 20:16:00,0.0,0.0,30.08,SE,132,12.0,18.0,0,0.00,,---,0.08,VWS V14.01,2013-08-20 00:16:00,
2013-08-19 20:22:00,0.0,0.0,30.08,East,89,6.0,18.0,0,0.00,,---,0.08,VWS V14.01,2013-08-20 00:22:00,
2013-08-19 20:27:00,0.0,0.0,30.08,ESE,111,14.0,18.0,0,0.00,,---,0.08,VWS V14.01,2013-08-20 00:27:00,
2013-08-19 20:32:00,0.0,0.0,30.08,ESE,103,8.0,15.0,0,0.00,,---,0.08,VWS V14.01,2013-08-20 00:32:00,
2013-08-19 20:37:00,0.0,0.0,30.08,East,101,13.0,16.0,0,0.00,,---,0.08,VWS V14.01,2013-08-20 00:37:00,
2013-08-19 20:42:00,0.0,0.0,30.08,ESE,102,10.0,16.0,0,0.00,,---,0.08,VWS V14.01,2013-08-20 00:42:00,
2013-08-19 20:47:00,0.0,0.0,30.08,ESE,105,11.0,16.0,0,0.00,,---,0.08,VWS V14.01,2013-08-20 00:47:00,
2013-08-19 20:52:00,0.0,0.0,30.08,ESE,119,6.0,16.0,0,0.00,,---,0.08,VWS V14.01,2013-08-20 00:52:00,
2013-08-19 20:57:00,0.0,0.0,30.08,ESE,112,10.0,16.0,0,0.00,,---,0.08,VWS V14.01,2013-08-20 00:57:00,
2013-08-19 21:02:00,0.0,0.0,30.08,ESE,105,11.0,15.0,0,0.00,,---,0.08,VWS V14.01,2013-08-20 01:02:00,
2013-08-19 21:07:00,0.0,0.0,30.09,ESE,103,11.0,15.0,0,0.00,,---,0.08,VWS V14.01,2013-08-20 01:07:00,
2013-08-19 21:12:00,0.0,0.0,30.09,ESE,107,10.0,15.0,0,0.00,,---,0.08,VWS V14.01,2013-08-20 01:12:00,
2013-08-19 21:17:00,0.0,0.0,30.09,East,98,11.0,15.0,0,0.00,,---,0.08,VWS V14.01,2013-08-20 01:17:00,
2013-08-19 21:22:00,0.0,0.0,30.09,ESE,104,9.0,15.0,0,0.00,,---,0.08,VWS V14.01,2013-08-20 01:22:00,
2013-08-19 21:27:00,0.0,0.0,30.09,ESE,110,9.0,10.0,0,0.00,,---,0.08,VWS V14.01,2013-08-20 01:27:00,
2013-08-19 21:33:00,0.0,0.0,30.09,East,98,12.0,13.0,0,0.00,,---,0.08,VWS V14.01,2013-08-20 01:33:00,
2013-08-19 21:38:00,0.0,0.0,30.09,East,92,5.0,13.0,0,0.00,,---,0.08,VWS V14.01,2013-08-20 01:38:00,
2013-08-19 21:43:00,0.0,0.0,30.09,East,91,4.0,13.0,0,0.00,,---,0.08,VWS V14.01,2013-08-20 01:43:00,
2013-08-19 21:48:00,0.0,0.0,30.09,East,93,6.0,13.0,0,0.00,,---,0.08,VWS V14.01,2013-08-20 01:48:00,
2013-08-19 21:53:00,0.0,0.0,30.09,East,84,4.0,13.0,0,0.00,,---,0.08,VWS V14.01,2013-08-20 01:53:00,
2013-08-19 21:58:00,0.0,0.0,30.09,East,100,8.0,13.0,0,0.00,,---,0.08,VWS V14.01,2013-08-20 01:58:00,
2013-08-19 22:03:00,0.0,0.0,30.09,East,92,8.0,13.0,0,0.00,,---,0.08,VWS V14.01,2013-08-20 02:03:00,
2013-08-19 22:08:00,0.0,0.0,30.09,East,85,5.0,13.0,0,0.00,,---,0.08,VWS V14.01,2013-08-20 02:08:00,
2013-08-19 22:13:00,0.0,0.0,30.09,East,101,9.0,14.0,0,0.00,,---,0.08,VWS V14.01,2013-08-20 02:13:00,
2013-08-19 22:18:00,0.0,0.0,30.09,East,101,6.0,14.0,0,0.00,,---,0.08,VWS V14.01,2013-08-20 02:18:00,
2013-08-19 22:23:00,0.0,0.0,30.09,East,95,5.0,14.0,0,0.00,,---,0.08,VWS V14.01,2013-08-20 02:23:00,
2013-08-19 22:28:00,0.0,0.0,30.09,East,86,7.0,7.0,0,0.00,,---,0.08,VWS V14.01,2013-08-20 02:28:00,
2013-08-19 22:33:00,0.0,0.0,30.09,East,96,2.0,8.0,0,0.00,,---,0.08,VWS V14.01,2013-08-20 02:33:00,
2013-08-19 22:38:00,0.0,0.0,30.09,ESE,109,5.0,11.0,0,0.00,,---,0.08,VWS V14.01,2013-08-20 02:38:00,
2013-08-19 22:44:00,0.0,0.0,30.09,East,92,7.0,11.0,0,0.00,,---,0.08,VWS V14.01,2013-08-20 02:44:00,
2013-08-19 22:49:00,0.0,0.0,30.09,East,88,5.0,11.0,0,0.00,,---,0.08,VWS V14.01,2013-08-20 02:49:00,
2013-08-19 22:54:00,0.0,0.0,30.09,East,95,6.0,11.0,0,0.00,,---,0.08,VWS V14.01,2013-08-20 02:54:00,
2013-08-19 22:59:00,0.0,0.0,30.09,ESE,103,6.0,10.0,0,0.00,,---,0.08,VWS V14.01,2013-08-20 02:59:00,
2013-08-19 23:04:00,0.0,0.0,30.09,ESE,109,9.0,12.0,0,0.00,,---,0.08,VWS V14.01,2013-08-20 03:04:00,
2013-08-19 23:09:00,0.0,0.0,30.09,East,90,7.0,12.0,0,0.00,,---,0.08,VWS V14.01,2013-08-20 03:09:00,
2013-08-19 23:14:00,0.0,0.0,30.09,ESE,107,9.0,12.0,0,0.00,,---,0.08,VWS V14.01,2013-08-20 03:14:00,
2013-08-19 23:19:00,0.0,0.0,30.09,ESE,113,5.0,12.0,0,0.00,,---,0.08,VWS V14.01,2013-08-20 03:19:00,
2013-08-19 23:24:00,0.0,0.0,30.09,ESE,107,7.0,13.0,0,0.00,,---,0.08,VWS V14.01,2013-08-20 03:24:00,
2013-08-19 23:29:00,0.0,0.0,30.09,East,98,9.0,12.0,0,0.00,,---,0.08,VWS V14.01,2013-08-20 03:29:00,
2013-08-19 23:34:00,0.0,0.0,30.09,ESE,117,7.0,14.0,0,0.00,,---,0.08,VWS V14.01,2013-08-20 03:34:00,
2013-08-19 23:39:00,0.0,0.0,30.09,East,98,5.0,14.0,0,0.00,,---,0.08,VWS V14.01,2013-08-20 03:39:00,
2013-08-19 23:44:00,0.0,0.0,30.09,East,99,5.0,14.0,0,0.00,,---,0.08,VWS V14.01,2013-08-20 03:44:00,
2013-08-19 23:49:00,0.0,0.0,30.09,ESE,113,6.0,14.0,0,0.00,,---,0.08,VWS V14.01,2013-08-20 03:49:00,
2013-08-19 23:54:00,0.0,0.0,30.09,East,88,6.0,14.0,0,0.00,,---,0.08,VWS V14.01,2013-08-20 03:54:00,